Simultaneous Nadir Overpasses (SNOs) Predictions

Prediction of SNOs between AQUA and NOAA-19 Satellite Orbit:

Table of predicted SNOs for the next 14.0 days since TLE Epoch: 12/28/2024
Index Date (AQUA) Time (AQUA) Lat,Lon (AQUA) SZA (AQUA ) Date (NOAA-19) Time (NOAA-19) Lat,Lon (NOAA-19) SZA (NOAA-19 ) Distance(km) Time Diff (sec)
1 12/28/2024 15:26:45 -75.60, 130.19 81.25 12/28/2024 15:26:02 -75.59, 130.09 81.26 3.05 43
2 12/28/2024 16:16:07 75.67, -62.36 98.83 12/28/2024 16:16:58 75.68, -62.35 98.83 0.44 51
3 12/30/2024 18:24:53 -75.65, 85.56 81.34 12/30/2024 18:24:31 -75.64, 85.68 81.35 3.73 22
4 12/30/2024 19:14:14 75.68,-106.85 98.69 12/30/2024 19:15:27 75.70,-106.85 98.71 2.19 73
5 01/01/2025 21:22:58 -75.63, 41.15 81.53 01/01/2025 21:23:01 -75.63, 41.07 81.54 2.25 3
6 01/03/2025 23:31:43 75.61,-170.93 98.25 01/03/2025 23:30:30 75.61,-170.80 98.25 3.59 73
7 01/04/2025 00:21:02 -75.64, -3.34 81.73 01/04/2025 00:21:30 -75.65, -3.43 81.72 2.97 28
8 01/06/2025 02:29:45 75.59, 144.65 97.99 01/06/2025 02:28:59 75.60, 144.57 98.00 2.27 46
9 01/06/2025 03:19:05 -75.67, -47.89 81.94 01/06/2025 03:19:59 -75.66, -47.97 81.95 2.34 54
10 01/08/2025 05:27:46 75.60, 100.17 97.73 01/08/2025 05:27:27 75.61, 100.06 97.74 3.17 19
11 01/08/2025 06:17:12 -75.97, -93.27 81.91 01/08/2025 06:18:21 -75.97, -91.46 81.91 48.79 69
12 01/10/2025 07:36:18 -75.25,-110.94 82.93 01/10/2025 07:35:10 -75.18,-113.16 83.00 63.58 68
13 01/10/2025 08:25:46 75.64, 55.61 97.46 01/10/2025 08:25:54 75.67, 55.67 97.49 3.27 8



Historial Predications of SNOs between AQUA and NOAA-19
